sat.trackr.live / text

‹ back to catalog

SITRO-AIS-63

NORAD 67294 · 2025-313AY

PAYLOAD ACTIVE UNKNOWN

§ Identity

Operator
Country
CIS
Launch date
2025-12-28
Launch site
VOSTO
Launch vehicle
Mass (kg)
RCS (m²)

External: N2YO · Heavens-Above · Gunter

§ Orbital elements

Epoch: 2026-05-24T15:37:42.320064Z

Period
94.45 min
Inclination
97.3945°
Eccentricity
0.0010457
Mean motion
15.24536416 rev/d
Perigee alt
485.0 km
Apogee alt
499.4 km
Semi-major
6,870.3 km
B*
3.4629e-4
RAAN
220.0326°
Arg perigee
83.2835°
Mean anomaly
276.9592°
Rev number
2,239

§ Raw data

SITRO-AIS-631 67294U 25313AY  26144.65118426  .00008466  00000+0  34629-3 0  99922 67294  97.3945 220.0326 0010457  83.2835 276.9592 15.24536416 22391

JSON: /api/v1/satellites/67294 · /tle

For live sub-satellite position, see the globe view (requires WebGL).

§ Visibility from observer

Set your observer location to see the next 7 days of passes ≥ 10°. The values pass through the URL so the page stays shareable.

No JS? Fill the form by hand. The geolocation button needs JavaScript.